CZ-6A DEB, 60644

Orbit data source: Space-Track

CZ-6A DEB, 60644 is space debris in LEO originally from a launch on Tue, 06 Aug 2024 UTC launched from the Taiyaun Space Center, China (TSC). Debris objects in space refer to the collection of defunct objects orbiting the Earth. Examples of debris include non-operational satellites, rocket bodies, and fragments generated from explosions, collisions, or faulty payload assembly.

Loading next visibility...
Identifier
60644, 2024-140AV
Orbit
LEO
Country
Flag of CNCN / PRC
Related business
Manufacturer
SAST
Mission
Spacecraft
Bus & Motor
Unknown
Mass
Unknown
Launch date (UTC)
2024-08-06 (2 years ago)
Launch vehicle
Unknown
Launch site
Taiyaun Space Center, China (TSC)
Object type
Payload
Rocket body
Debris
Shape & HBR
Unknown shape, 0.2 m
Radar Cross Section
Medium (>0.1 m² and <1 m²)

Expand to show TLE details & history
Last TLE update: 14 hours ago

TLE from 14 hours ago
0 CZ-6A DEB
1 60644U 24140AV  26171.25830669  .00025218  00000-0  22470-2 0  9992
2 60644  89.0049 268.1319 0070949 157.4588 202.9787 14.93960985100458
Epoch: 2026-06-20T06:11Z
TLE epoch observation values (Epoch: 2026-06-20T06:11:57.698Z)
Latitude
-0.00003°
Longitude
-93.33402°
Altitude
634.308 km
Speed
7.516 km/s
True Right ascension
17h 52m 31s
True Declination
0° 00' 00"
Sunlit
Object was in full shadow at epoch
Visualization orbit readout
Latitude
Unknown
Longitude
Unknown
Altitude
Unknown
Speed
Unknown
Apparent Right ascension
Unknown
Apparent Declination
Unknown
Sunlit
N/A
Visualization observer readout
Local Sidereal Time
07:22:53
Azimuth
Unknown
Elevation
Unknown
Doppler factor
Unknown
Orbital elements
Apogee altitude
631.83 km
Perigee altitude
533.061 km
Semi-major axis
6,960.582 km
Eccentricity
0.00709
Inclination
89.0049°
RAAN
268.1319°
Arg. of periapsis
157.4588°
True anomaly
202.66388°
Mean anomaly
202.9787°
Eccentric anomaly
202.82103°
Mean motion
3.73744 °/min
Orbital period
96.32 mins
BSTAR
0.002247
Loading maneuver chart data...
Computing Atmospheric mass density...
Loading historical data...
Loading historical data...
Loading historical data...
Loading historical data...
Loading historical data...
Loading historical data...
Loading historical data...

Documentation

Showing up to 5 results
|